Tracking 35280 objects as of 7-Sep-2026
HD Live streaming from Space Station
objects crossing your sky now

ONEWEB-0660

Track ONEWEB-0660 now!
10-day predictions
ONEWEB-0660 is classified as:


NORAD ID: 55820
Int'l Code: 2023-029AA
Launch date: March 9, 2023
Source: United Kingdom (UK)
Launch site: AIR FORCE EASTERN TEST RANGE (AFETR)
Your satellite tracking list
Your tracking list is empty




NASA's NSSDC Master Catalog

Two Line Element Set (TLE):
1 55820U 23029AA  26249.57318081  .00000026  00000-0  36498-4 0  9994
2 55820  87.8908 273.4760 0002148  89.1067 271.0309 13.14503870170098
Source of the keplerian elements: AFSPC